Location: ??
(35.4032°N, 139.3073°E)
Time: 03:07:27
(UTC+00:00)

Envisat - Visible Passes

Search period start: 24 June 2024 00:00
Search period end: 04 July 2024 00:00
Orbit: 762 x 764 km, 98.3° (Epoch: 23 June)

Date Brightness Start Highest point End Pass type
(mag) Time Alt. Az. Time Alt. Az. Time Alt. Az.
24 Jun 5.6 16:34:17 10° ENE 16:35:42 11° E 16:37:06 10° ESE visible
24 Jun 3.0 18:10:02 10° N 18:15:04 69° WNW 18:19:21 14° SSW visible
25 Jun 3.7 17:32:47 10° NNE 17:37:43 49° E 17:41:31 16° S visible
26 Jun 5.1 16:56:24 10° NE 17:00:09 21° E 17:03:41 11° SE visible
26 Jun 3.7 18:34:31 10° N 18:39:11 38° WNW 18:43:50 10° SW visible
27 Jun 3.0 17:56:51 10° NNE 18:01:57 88° E 18:05:59 16° SSW visible
28 Jun 4.2 17:19:52 10° NNE 17:24:32 36° E 17:28:08 15° SSE visible
28 Jun 4.4 18:59:20 10° NNW 19:03:13 23° WNW 19:07:06 10° WSW visible
29 Jun 5.4 16:44:01 10° ENE 16:46:54 15° E 16:49:45 10° SE visible
29 Jun 3.3 18:21:12 10° N 18:26:07 52° WNW 18:30:26 13° SSW visible
30 Jun 3.3 17:43:45 10° NNE 17:48:48 65° E 17:52:35 18° S visible
01 Jul 4.7 17:07:03 10° NE 17:11:18 27° E 17:14:44 14° SSE visible
01 Jul 4.0 18:45:49 10° N 18:50:11 30° WNW 18:54:32 10° SW visible
02 Jul 5.6 16:32:32 10° ENE 16:33:37 11° E 16:34:41 10° ESE visible
02 Jul 3.0 18:07:57 10° N 18:13:00 71° WNW 18:17:02 16° SSW visible
03 Jul 3.8 17:30:44 10° NNE 17:35:37 47° E 17:39:11 18° SSE visible
